Find Uribyol-3

NORAD ID: 25756 Int'l Des: 1999-029 Owner: KAIST Country: KR operational
LEOCIRCULARRETROGRADESSO

Live Position

Loading 3D Globe...

About Uribyol-3

Description loading...

Upcoming Passes

Passes for default location (London). Set your location on the main map for personalized predictions.

Altitude History

Loading altitude history...

Two-Line Element Set

1 25756U 99029A 26107.04044031 .00000127 00000-0 40318-4 0 9996
2 25756 98.6238 140.6315 0014455 90.1467 270.1386 14.55770436426134
Epoch: Apr 17, 2026 • Age: 15 hours

Current Status

Altitude 708.4 km
Velocity 7.51 km/s
Sub-Earth Point 61.78°N, 113.47°W
Launch Date May 26, 1999
Age 26.8 years
Type other

Technical Details

Classification Payload
Mass 110.00 kg
Dry Mass 110.00 kg
Total Mass 110.00 kg
Length 0.60 m
Diameter 0.40 m
Span 0.60 m
Shape Box
Manufacturer KAIST
Bus Type SI-200
Phase Status In Orbit
Owner/State KAIST/KR

Most Searched